Location: ?ernice
(48.8383°N, 14.3803°E)
Time: 20:26:58
(UTC+00:00)

Cosmos 839 Rocket - Pass Details

Date: 23 May 2024
Orbit: 965 x 2088 km, 65.9° (Epoch: 20 June)

Event Time Altitude Azimuth Distance (km) Brightness Sun altitude
Rises 01:16:48 0° 322° (NW) 4,360 7.6 -14.1°
Reaches altitude 10° 01:19:53 10° 323° (NW) 3,233 7.0 -13.8°
Maximum altitude 01:27:22 82° 51° (NE) 1,089 4.3 -13.1°
Drops below altitude 10° 01:33:39 10° 140° (SE) 2,735 6.2 -12.5°
Sets 01:36:04 0° 142° (SE) 3,649 6.9 -12.2°
